Other Public Products
Issued by NWS Charleston, SC

Current Version | Previous Version | Graphics & Text | Print | Product List | Glossary On
Versions: 1 2 3 4 5 6 7 8 9 10 11 12 13 14 15 16 17 18 19 20 21 22 23 24 25 26 27 28 29 30 31 32 33 34 35 36 37 38 39 40 41 42 43 44 45 46 47 48 49 50
000
FPUS82 KCHS 251227
OPUCHS

TEST...KCHS/KSAV Gateway Observations...TEST
National Weather Service Charleston SC
800 AM EDT WED APR 25 2018

NOTE: "fair" indicates few or no clouds below 12,000 feet with no
significant weather and/or obstructions to visibility.

SCZ050-WAZ558-NCZ071-TXZ119-213-PAZ071-DCZ001-FLZ074-172-MI076-
NYZ176-178-MAZ016-IL014-TNZ027-NJZ106-GAZ044-MD014-251300-

...Gateway Observations for Charleston International...

CITY           SKY/WX    TMP DP  RH WIND       PRES   REMARKS
Chas Airport   FAIR      63  58  83 W7        29.84R
6HR MIN TEMP:  59; 6HR MAX TEMP:  65;

Seattle        PTCLDY    53  38  56 NE9       30.08R
6HR MIN TEMP:  51; 6HR MAX TEMP:  62;

Charlotte      PTSUNNY   58  57  97 NW3       29.80R
6HR MIN TEMP:  57; 6HR MAX TEMP:  59; 6HR PCP:  0.01;

Dallas DFW     CLOUDY    65  56  72 NW15      30.05R
6HR MIN TEMP:  63; 6HR MAX TEMP:  71; 6HR PCP:  0.02;

Dallas Love    CLOUDY    67  56  67 NW5       30.05R
6HR MIN TEMP:  65; 6HR MAX TEMP:  73; 6HR PCP:  0.01;

Philladelphia  CLOUDY    56  56 100 E12       29.84F
6HR MIN TEMP:  53; 6HR MAX TEMP:  56; 6HR PCP:  0.15;

Wash National  DRIZZLE   58  56  93 N8        29.79F FOG
6HR MIN TEMP:  56; 6HR MAX TEMP:  58; 6HR PCP:  0.21;

Baltimore      DRZL/FOG  57  57 100 NE6       29.79F VSB 1
6HR MIN TEMP:  55; 6HR MAX TEMP:  57; 6HR PCP:  0.25;

Miami          FAIR      70  63  78 N6        30.00R
6HR MIN TEMP:  68; 6HR MAX TEMP:  75; 6HR PCP:  0.07;

Detroit        CLOUDY    53  48  83 N8        29.92R HAZE
6HR MIN TEMP:  50; 6HR MAX TEMP:  52; 6HR PCP:  0.02;

Newark         LGT RAIN  55  55 100 E16G24    29.92F FOG
6HR MIN TEMP:  53; 6HR MAX TEMP:  55; 6HR PCP:  0.35;

Laguardia      LGT RAIN  52  50  93 E12       29.93F FOG
6HR MIN TEMP:  50; 6HR MAX TEMP:  56; 6HR PCP:  0.38;

J F K          LGT RAIN  54  54 100 E20G30    29.92F FOG
6HR MIN TEMP:  52; 6HR MAX TEMP:  54; 6HR PCP:  0.31;

Boston Logan   LGT RAIN  48  46  93 NE6       30.13F
6HR MIN TEMP:  47; 6HR MAX TEMP:  51; 6HR PCP:  0.03;

Ft. Lauderdale FAIR      70  63  78 NW6       29.99R
6HR MIN TEMP:  69; 6HR MAX TEMP:  75; 6HR PCP: TRACE;

Chicago O`Hare FAIR      44  32  62 N14       30.09R
6HR MIN TEMP:  43; 6HR MAX TEMP:  49;

Chicago Midway PTSUNNY   43  34  70 N17G23    30.09R
6HR MIN TEMP:  43; 6HR MAX TEMP:  48;

Houston Bush   FAIR      61  60  97 CALM      30.04S
6HR MIN TEMP:  60; 6HR MAX TEMP:  69;

Houston Hobby  FAIR      61  61 100 SE7       30.04S
6HR MIN TEMP:  61; 6HR MAX TEMP:  67;

Nashville      CLOUDY    57  52  83 NW8       30.00R
6HR MIN TEMP:  56; 6HR MAX TEMP:  57;

Atlanta        CLOUDY    57  55  93 W9        29.91R
6HR MIN TEMP:  54; 6HR MAX TEMP:  57;


$$

GAZ044-118-TXZ119-213-NCZ071-DCZ001-MDZ014-506-PAZ021-071-NJZ106-
NYZ176-178-MAZ106-OHZ011-021-055-MIZ076-KYZ091-ILZ014-INZ047-
MNZ060-ONZ431-251300-

...Gateway Observations for Savannah International...

CITY           SKY/WX    TMP DP  RH WIND       PRES   REMARKS
Savannah Arpt  FAIR      60  56  86 W10       29.88R
6HR MIN TEMP:  58; 6HR MAX TEMP:  65;

Atlanta        CLOUDY    57  55  93 W9        29.91R
6HR MIN TEMP:  54; 6HR MAX TEMP:  57;

Charlotte      PTSUNNY   58  57  97 NW3       29.80R
6HR MIN TEMP:  57; 6HR MAX TEMP:  59; 6HR PCP:  0.01;

Dallas DFW     CLOUDY    65  56  72 NW15      30.05R
6HR MIN TEMP:  63; 6HR MAX TEMP:  71; 6HR PCP:  0.02;

Houston Bush   FAIR      61  60  97 CALM      30.04S
6HR MIN TEMP:  60; 6HR MAX TEMP:  69;

Wash National  DRIZZLE   58  56  93 N8        29.79F FOG
6HR MIN TEMP:  56; 6HR MAX TEMP:  58; 6HR PCP:  0.21;

Wash Dulles    CLOUDY    53  53 100 N7        29.81S FOG
6HR MIN TEMP:  53; 6HR MAX TEMP:  54; 6HR PCP:  0.22;

Baltimore      DRZL/FOG  57  57 100 NE6       29.79F VSB 1
6HR MIN TEMP:  55; 6HR MAX TEMP:  57; 6HR PCP:  0.25;

Philadelphia   CLOUDY    56  56 100 E12       29.84F
6HR MIN TEMP:  53; 6HR MAX TEMP:  56; 6HR PCP:  0.15;

Newark         LGT RAIN  55  55 100 E16G24    29.92F FOG
6HR MIN TEMP:  53; 6HR MAX TEMP:  55; 6HR PCP:  0.35;

Laguardia      LGT RAIN  52  50  93 E12       29.93F FOG
6HR MIN TEMP:  50; 6HR MAX TEMP:  56; 6HR PCP:  0.38;

J F K          LGT RAIN  54  54 100 E20G30    29.92F FOG
6HR MIN TEMP:  52; 6HR MAX TEMP:  54; 6HR PCP:  0.31;

Boston         LGT RAIN  48  46  93 NE6       30.13F
6HR MIN TEMP:  47; 6HR MAX TEMP:  51; 6HR PCP:  0.03;

Pittsburg      PTSUNNY   51  49  92 E3        29.83S
6HR MIN TEMP:  50; 6HR MAX TEMP:  51;

Akron          DRIZZLE   52  48  86 CALM      29.86R FOG
6HR MIN TEMP:  51; 6HR MAX TEMP:  52; 6HR PCP:  0.01;

Cleveland      LGT RAIN  52  51  97 N5        29.89R VSB 1
6HR MIN TEMP:  50; 6HR MAX TEMP:  53; 6HR PCP:  0.03;

Cincinnati     CLOUDY    53  50  89 N7        29.92R
6HR MIN TEMP:  53; 6HR MAX TEMP:  53; 6HR PCP: TRACE;

Columbus       CLOUDY    53  53 100 NW7       29.88R
Detroit        CLOUDY    53  48  83 N8        29.92R HAZE
6HR MIN TEMP:  50; 6HR MAX TEMP:  52; 6HR PCP:  0.02;

Chicago O`Hare FAIR      44  32  62 N14       30.09R
6HR MIN TEMP:  43; 6HR MAX TEMP:  49;

Minneapolis    FAIR      36  25  64 N7        30.26S WCI  30
6HR MIN TEMP:  35; 6HR MAX TEMP:  46;

Indianapolis   CLOUDY    51  49  92 NW10      29.99R FOG
6HR MIN TEMP:  47; 6HR MAX TEMP:  53;

Toronto Canada LGT RAIN  48  46  93 E7        29.89F FOG

$$




USA.gov is the U.S. government's official web portal to all federal, state and local government web resources and services.